CAPE
2 2 2 2 2 1 2 1 1 1 1 1 1 0 0 0 0 0 0 0 0 326 1106 551 96 27 127 119 226 147 248 51 45 104 435 572 444 433 681 588 761 856 584 693 785
2 2 2 2 1 1 1 1 1 1 1 0 0 0 0 0 0 0 0 20 435 1378 365 274 122 24 110 154 225 131 159 150 126 116 460 582 380 641 642 830 972 817 862 963 689
1 1 1 1 1 1 1 1 1 1 1 1 0 0 0 0 0 0 0 1274 1808 528 129 51 21 236 158 283 294 290 244 282 210 298 438 522 547 644 653 740 835 846 717 746 536
1 2 1 1 1 1 1 1 1 1 1 0 0 0 0 0 0 0 161 1675 1943 106 113 525 537 100 213 297 343 339 325 394 282 690 529 597 668 659 495 430 698 869 812 810 641
1 1 1 1 1 1 1 1 0 1 1 0 0 0 0 0 0 0 681 2210 517 239 273 486 196 284 315 421 462 416 381 266 136 464 702 711 667 473 479 983 966 886 901 945 937
1 1 1 1 0 0 0 0 1 0 0 0 0 0 0 0 0 55 75 894 209 370 504 361 131 358 476 240 273 231 362 163 350 543 687 512 574 288 672 1105 1097 1047 1032 999 1035
1 1 1 1 0 0 0 1 1 0 0 0 0 0 0 0 0 132 352 326 278 366 439 415 124 650 434 555 342 269 89 67 98 420 496 352 412 319 632 1099 1170 1211 1120 1105 1127
1 1 1 1 1 0 0 1 0 0 0 0 0 0 0 0 0 28 0 3 321 1 170 420 411 582 655 546 269 283 160 56 39 84 50 179 139 244 845 986 1036 1193 1171 1192 1249
1 1 1 1 2 1 1 0 0 0 0 0 0 0 0 0 0 0 0 0 51 179 0 377 455 389 457 490 365 264 196 188 122 60 50 16 89 0 793 752 761 1099 1182 1195 1326
1 1 2 3 3 3 0 0 0 0 0 0 0 0 0 0 0 0 0 0 0 190 0 559 418 803 298 579 463 346 300 127 58 55 26 62 68 2 729 683 571 831 1039 1024 1174
0 3 3 5 4 4 0 0 0 0 0 0 0 0 0 0 0 0 0 0 0 0 0 550 542 634 574 514 461 327 340 326 207 27 45 52 57 46 243 685 573 633 840 1040 827
0 4 5 4 4 1 0 0 0 0 0 0 0 0 0 0 0 0 0 0 0 0 200 422 234 351 415 274 273 301 363 455 237 60 84 160 290 195 109 577 631 570 659 814 956
3 4 5 4 1 0 0 0 0 0 0 0 0 0 0 0 0 0 0 0 0 0 114 112 84 290 339 361 333 275 307 303 220 319 263 375 467 464 258 166 332 633 533 597 699
5 6 4 1 0 0 0 0 0 0 0 0 0 0 0 0 0 0 0 0 0 0 64 41 175 145 188 204 162 233 124 208 321 380 281 338 428 436 268 320 218 162 244 498 650
4 7 0 0 0 0 0 0 0 0 0 0 0 0 0 0 0 0 0 0 6 57 33 18 92 228 367 334 181 289 322 288 622 574 260 211 333 36 119 304 385 304 209 75 86
2 4 2 0 1 0 0 0 0 0 0 0 0 0 0 0 0 0 0 0 0 13 26 11 0 109 217 127 149 247 253 118 105 85 124 7 150 57 99 146 30 182 289 213 110
2 0 3 0 0 0 0 0 0 0 0 0 0 0 0 0 0 0 0 0 0 0 0 2 43 18 157 240 349 339 413 166 142 239 233 13 70 86 70 3 2 14 243 302 168
0 0 0 0 0 0 0 0 0 0 0 0 0 0 0 0 0 0 0 0 0 0 0 0 0 55 140 274 335 363 360 246 125 110 47 26 267 59 140 70 58 12 53 233 186
0 0 0 0 0 0 0 0 0 0 0 0 0 0 0 0 0 0 0 0 0 0 0 0 0 0 57 156 203 227 369 174 147 17 157 131 221 78 126 119 50 34 28 289 207
0 0 0 0 0 0 0 0 0 0 0 0 0 0 0 0 0 0 0 0 0 0 0 0 0 0 0 65 12 209 126 267 192 241 194 299 245 328 293 141 21 210 110 155 359
0 0 0 0 0 0 0 0 0 0 0 0 0 0 0 0 0 0 0 0 0 0 0 0 0 0 0 52 210 208 247 134 206 294 204 97 136 277 284 150 42 8 233 134 186
0 0 0 0 0 0 0 0 0 0 0 0 0 0 0 0 0 0 0 0 0 0 0 0 0 0 0 0 2 104 204 299 337 236 126 59 33 14 12 39 129 96 56 125 80
0 0 0 0 0 0 0 0 0 0 0 0 0 0 0 0 0 0 0 0 0 0 0 0 0 0 0 0 0 0 34 223 54 14 117 25 27 15 47 63 235 251 254 558 348
0 0 0 0 0 0 0 0 0 0 0 0 0 0 0 0 0 0 0 0 0 0 0 0 0 0 0 0 0 0 0 0 29 59 7 2 9 106 65 6 0 48 309 445 392
0 0 0 0 0 0 0 0 0 0 0 0 0 0 0 0 0 0 0 0 0 0 0 0 0 0 0 0 0 0 0 0 0 2 0 0 1 34 1 0 0 0 52 288 241
0 0 0 0 0 0 0 0 0 0 0 0 0 0 0 0 0 0 0 0 0 0 0 0 0 0 0 0 0 0 0 0 0 0 0 0 0 0 2 8 218 193 256 352 373
0 0 0 0 0 0 0 0 0 0 0 0 0 0 0 0 0 0 0 0 0 0 0 0 0 0 0 0 0 0 0 0 0 0 0 0 0 1 0 73 126 271 362 483 483
CIN
-0 -0 -0 -0 -0 -0 -0 -0 -0 -0 -0 -0 -0 -0 -0 -0 -0 -0 -0 -0 -0 -508 -304 -318 -319 -393 -385 -332 -329 -319 -34 -13 -27 -24 -25 -47 -56 -88 -105 -98 -82 -70 -85 -71 -57
-0 -0 -0 -0 -0 -0 -0 -0 -0 -0 -0 -0 -0 -0 -0 -0 -0 -0 -0 -67 -512 -341 -274 -251 -269 -190 -249 -280 -259 -170 -31 -28 -35 -26 -28 -47 -44 -73 -86 -89 -90 -96 -83 -53 -64
-0 -0 -0 -0 -0 -0 -0 -0 -0 -0 -0 -0 -0 -0 -0 -0 -0 -0 -0 -390 -302 -383 -301 -270 -369 -234 -174 -206 -174 -136 -41 -60 -41 -48 -37 -43 -58 -87 -60 -51 -74 -100 -112 -80 -81
-0 -0 -0 -0 -0 -0 -0 -0 -0 -0 -0 -0 -0 -0 -0 -0 -0 -0 -586 -337 -280 -388 -260 -150 -175 -192 -130 -91 -154 -58 -104 -100 -63 -63 -54 -47 -63 -66 -78 -67 -96 -105 -99 -103 -98
-0 -0 -0 -0 -0 -0 -0 -0 -0 -0 -0 -0 -0 -0 -0 -0 -0 -0 -440 -245 -376 -326 -188 -139 -134 -134 -63 -100 -125 -88 -89 -92 -78 -62 -52 -62 -57 -64 -79 -136 -140 -156 -108 -67 -48
-0 -0 -0 -0 -0 -0 -0 -0 -0 -0 -0 -0 -0 -0 -0 -0 -0 -702 -732 -354 -390 -268 -181 -147 -208 -147 -123 -119 -108 -113 -105 -84 -66 -61 -55 -39 -61 -78 -102 -160 -158 -150 -118 -89 -70
-0 -0 -0 -0 -0 -0 -0 -0 -0 -0 -0 -0 -0 -0 -0 -0 -0 -744 -503 -455 -414 -264 -171 -172 -277 -96 -125 -82 -123 -122 -57 -54 -81 -68 -54 -60 -60 -69 -116 -152 -135 -136 -121 -110 -85
-0 -0 -0 -0 -0 -0 -0 -0 -0 -0 -0 -0 -0 -0 -0 -0 -0 -263 -0 -125 -402 -125 -342 -203 -169 -125 -95 -91 -88 -62 -74 -34 -85 -69 -88 -53 -15 -49 -129 -131 -113 -130 -127 -116 -104
-0 -0 -0 -0 -0 -0 -0 -0 -0 -0 -0 -0 -0 -0 -0 -0 -0 -0 -0 -0 -474 -439 -0 -215 -143 -144 -95 -58 -38 -77 -52 -51 -60 -102 -96 -79 -32 -0 -123 -113 -96 -116 -129 -115 -102
-0 -0 -0 -0 -0 -0 -0 -0 -0 -0 -0 -0 -0 -0 -0 -0 -0 -0 -0 -0 -0 -379 -0 -128 -130 -55 -119 -40 -12 -33 -23 -51 -80 -103 -141 -67 -59 -123 -130 -127 -101 -102 -112 -177 -112
-0 -0 -0 -0 -0 -0 -0 -0 -0 -0 -0 -0 -0 -0 -0 -0 -0 -0 -0 -0 -0 -0 -2 -97 -43 -15 -19 -67 -43 -62 -53 -44 -64 -195 -165 -119 -109 -131 -140 -164 -140 -129 -109 -126 -229
-0 -0 -0 -0 -0 -0 -0 -0 -0 -0 -0 -0 -0 -0 -0 -0 -0 -0 -0 -0 -0 -0 -238 -99 -83 -56 -90 -115 -72 -70 -61 -40 -64 -218 -163 -131 -77 -94 -166 -185 -159 -143 -143 -122 -108
-0 -0 -0 -0 -0 -0 -0 -0 -0 -0 -0 -0 -0 -0 -0 -0 -0 -0 -0 -0 -0 -0 -204 -149 -124 -118 -70 -51 -47 -45 -64 -32 -37 -82 -128 -107 -71 -97 -171 -228 -234 -185 -148 -115 -96
-0 -0 -0 -0 -0 -0 -0 -0 -0 -0 -0 -0 -0 -0 -0 -0 -0 -0 -0 -0 -0 -0 -208 -193 -82 -122 -76 -48 -75 -43 -165 -106 -71 -53 -18 -129 -46 -64 -191 -232 -237 -228 -198 -147 -120
-0 -0 -0 -0 -0 -0 -0 -0 -0 -0 -0 -0 -0 -0 -0 -0 -0 -0 -0 -0 -400 -268 -267 -40 -118 -45 -23 -20 -54 -15 -86 -53 -72 -52 -86 -105 -29 -61 -318 -131 -144 -233 -223 -222 -190
-0 -0 -0 -0 -0 -0 -0 -0 -0 -0 -0 -0 -0 -0 -0 -0 -0 -0 -0 -0 -0 -365 -309 -86 -0 -113 -18 -87 -62 -94 -75 -113 -192 -168 -51 -257 -100 -53 -96 -109 -192 -227 -220 -217 -236
-1 -0 -0 -0 -0 -0 -0 -0 -0 -0 -0 -0 -0 -0 -0 -0 -0 -0 -0 -0 -0 -0 -0 -19 -114 -155 -68 -31 -68 -64 -24 -6 -10 -20 -39 -208 -196 -89 -112 -45 -107 -282 -215 -239 -300
-0 -0 -0 -0 -0 -0 -0 -0 -0 -0 -0 -0 -0 -0 -0 -0 -0 -0 -0 -0 -0 -0 -0 -0 -0 -114 -92 -23 -15 -43 -36 -10 -8 -18 -58 -293 -79 -56 -192 -215 -231 -319 -251 -254 -272
-0 -0 -0 -0 -0 -0 -0 -0 -0 -0 -0 -0 -0 -0 -0 -0 -0 -0 -0 -0 -0 -0 -0 -0 -0 -0 -120 -65 -27 -75 -23 -106 -17 -192 -65 -81 -83 -103 -117 -171 -204 -201 -246 -216 -248
-0 -0 -0 -0 -0 -0 -0 -0 -0 -0 -0 -0 -0 -0 -0 -0 -0 -0 -0 -0 -0 -0 -0 -0 -0 -0 -0 -99 -66 -38 -88 -26 -64 -9 -25 -57 -98 -32 -34 -47 -103 -131 -158 -204 -212
-0 -0 -0 -0 -0 -0 -0 -0 -0 -0 -0 -0 -0 -0 -0 -0 -0 -0 -0 -0 -0 -0 -0 -0 -0 -0 -0 -126 -20 -65 -30 -84 -68 -45 -14 -34 -25 -97 -90 -89 -140 -122 -112 -173 -237
-0 -0 -0 -0 -0 -0 -0 -0 -0 -0 -0 -0 -0 -0 -0 -0 -0 -0 -0 -0 -0 -0 -0 -0 -0 -0 -0 -0 -7 -33 -3 -19 -2 -22 -89 -80 -54 -66 -118 -130 -191 -154 -176 -236 -255
-0 -0 -0 -0 -0 -0 -0 -0 -0 -0 -0 -0 -0 -0 -0 -0 -0 -0 -0 -0 -0 -0 -0 -0 -0 -0 -0 -0 -0 -0 -78 -23 -42 -123 -40 -38 -44 -130 -195 -193 -196 -212 -180 -238 -254
-0 -0 -0 -0 -0 -0 -0 -0 -0 -0 -0 -0 -0 -0 -0 -0 -0 -0 -0 -0 -0 -0 -0 -0 -0 -0 -0 -0 -0 -0 -0 -0 -49 -41 -36 -43 -64 -38 -55 -102 -0 -203 -216 -251 -330
-0 -0 -0 -0 -0 -0 -0 -0 -0 -0 -0 -0 -0 -0 -0 -0 -0 -0 -0 -0 -0 -0 -0 -0 -0 -0 -0 -0 -0 -0 -0 -0 -0 -10 -0 -0 -10 -69 -13 -0 -0 -0 -274 -298 -336
-0 -0 -0 -0 -0 -0 -0 -0 -0 -0 -0 -0 -0 -0 -0 -0 -0 -0 -0 -0 -0 -0 -0 -0 -0 -0 -0 -0 -0 -0 -0 -0 -0 -0 -0 -0 -0 -0 -106 -142 -198 -162 -327 -298 -238
-0 -0 -0 -0 -0 -0 -0 -0 -0 -0 -0 -0 -0 -0 -0 -0 -0 -0 -0 -0 -0 -0 -0 -0 -0 -0 -0 -0 -0 -0 -0 -0 -0 -0 -0 -0 -0 -17 -0 -110 -87 -96 -253 -265 -299
Wind_Speed
14 14 14 14 14 14 15 14 14 13 13 13 12 11 12 12 12 3 6 3 6 16 9 8 4 3 1 3 2 1 2 3 2 4 5 10 5 5 4 10 4 2 8 10 19
14 14 14 14 14 14 15 15 14 13 13 14 13 12 12 11 3 7 2 10 18 17 10 10 7 5 2 2 2 1 3 2 2 3 6 12 11 7 5 9 4 5 10 19 18
14 14 14 15 14 15 15 15 15 14 12 13 14 13 11 8 3 1 6 15 15 11 9 4 8 1 2 1 2 0 3 2 4 1 11 13 7 4 5 7 7 10 18 18 16
14 14 14 15 16 15 15 15 15 14 13 12 14 13 14 2 3 4 10 17 14 9 10 9 5 2 2 2 1 1 3 3 3 5 11 11 6 4 6 4 2 16 19 19 19
15 15 15 15 15 16 16 15 15 15 14 11 12 12 3 2 5 5 11 15 12 8 7 5 3 3 3 2 1 1 3 5 6 10 9 8 3 1 2 5 12 18 18 16 14
15 15 15 16 17 17 17 17 16 15 13 11 9 10 1 4 4 5 14 16 10 7 7 3 0 2 4 2 1 4 6 3 8 11 9 8 2 2 3 10 13 17 18 16 17
15 15 16 16 18 19 19 19 17 15 12 8 5 2 1 8 4 5 12 9 11 3 5 2 1 1 3 2 3 4 5 7 7 11 7 8 5 10 8 12 13 15 16 15 16
15 15 16 16 18 20 21 21 18 12 6 3 3 2 6 0 2 7 7 8 12 2 1 1 2 1 2 3 1 1 2 3 3 10 4 11 6 12 12 15 14 15 14 14 16
15 16 16 16 17 18 20 20 14 2 3 6 3 2 5 1 4 6 6 8 11 4 2 5 2 2 1 1 2 4 2 1 1 3 6 10 6 6 14 16 15 15 15 15 14
15 16 16 16 15 16 19 15 5 2 1 3 1 3 3 3 3 7 4 14 6 7 2 3 2 2 2 0 3 2 2 0 3 1 5 8 15 5 14 17 18 16 16 14 16
16 16 16 15 16 15 10 3 3 2 1 5 2 2 1 2 4 3 6 9 7 8 7 3 6 8 5 4 1 2 5 8 7 4 4 8 11 12 11 17 18 17 18 17 15
16 16 16 17 16 9 3 4 1 3 6 10 9 6 5 2 3 6 10 9 7 10 8 5 10 6 2 3 3 4 8 11 8 1 5 5 12 13 12 20 23 21 20 20 17
16 16 16 17 16 2 2 4 3 3 3 4 5 6 5 9 4 12 18 8 9 13 14 9 1 10 7 3 4 8 10 9 7 1 1 7 9 8 12 17 15 21 21 20 20
16 16 16 21 2 2 4 3 5 4 3 4 4 4 7 7 5 7 17 8 5 15 15 9 9 4 6 5 6 7 4 8 5 4 4 2 7 11 5 15 18 21 21 22 21
17 15 15 8 7 4 3 4 2 3 4 6 4 1 2 10 9 8 9 7 12 11 8 9 9 12 12 11 10 2 2 2 3 2 4 1 5 5 4 9 15 18 22 20 20
18 17 13 1 3 6 4 4 3 4 6 5 5 7 8 5 4 6 13 3 4 7 6 9 3 5 9 5 6 9 2 4 3 1 5 1 3 8 5 5 5 6 15 20 18
19 18 7 3 2 3 2 4 4 5 2 6 4 7 12 10 6 8 16 18 13 12 10 4 8 3 5 8 6 4 1 2 2 2 3 1 5 12 12 13 11 10 9 11 15
25 19 5 10 4 6 2 3 6 2 4 2 4 6 9 11 7 5 16 18 7 10 9 11 11 9 6 6 2 3 2 3 3 3 7 2 7 5 5 8 7 8 9 6 12
20 1 2 3 11 2 3 6 4 5 0 1 4 5 7 8 7 8 14 21 19 16 13 11 12 2 9 5 6 6 7 1 6 2 5 4 6 15 6 8 8 9 7 7 11
4 3 1 3 12 3 4 5 3 3 2 1 2 4 11 14 12 10 13 11 11 16 16 6 8 7 7 7 5 7 10 4 3 4 5 4 6 9 10 11 7 7 11 9 10
2 2 5 2 6 3 9 6 4 5 4 2 1 1 2 8 9 14 14 3 17 13 10 9 6 4 7 10 10 6 5 2 2 4 4 6 7 5 9 9 10 9 11 11 13
3 1 5 3 4 1 7 6 3 1 3 2 2 3 2 5 7 9 12 10 12 18 16 13 7 11 9 3 5 11 13 13 8 7 2 4 12 6 14 10 8 10 10 9 13
3 1 3 4 4 4 2 5 3 4 3 1 2 3 1 1 3 6 6 2 10 14 18 12 11 9 7 9 4 8 10 10 4 1 11 7 11 3 8 13 9 11 9 8 10
2 3 3 2 1 2 8 4 7 2 3 2 2 2 2 3 0 7 7 4 5 7 3 13 10 17 15 13 9 14 14 13 15 10 13 13 21 20 21 16 15 15 10 7 7
2 2 3 4 5 2 1 5 6 4 2 2 2 5 3 4 4 3 3 4 4 4 4 12 12 17 21 21 15 17 20 23 19 23 14 21 16 19 17 17 17 11 9 9 10
3 2 1 0 1 4 1 3 5 3 3 4 4 3 7 4 1 5 3 1 2 4 4 4 3 7 15 10 17 17 15 17 21 20 13 21 19 22 19 13 13 7 6 10 12
2 1 3 1 2 5 5 4 5 2 2 1 3 4 8 4 3 4 3 2 2 1 4 4 5 6 6 6 9 8 20 14 11 12 14 13 17 12 9 11 11 10 6 10 11
Wind_Direction
356 353 351 348 343 338 335 336 337 340 340 332 343 338 330 330 311 206 230 210 174 155 141 121 113 109 38 79 31 355 106 105 134 186 141 164 145 135 91 143 108 14 152 146 150
354 351 348 345 342 337 334 333 334 338 339 331 337 334 330 336 297 251 232 142 139 149 142 153 148 167 92 73 68 354 107 66 300 218 174 174 162 157 160 156 103 89 110 133 150
351 349 347 342 341 336 332 330 332 335 339 332 329 332 326 320 269 276 132 148 151 155 145 142 144 140 62 342 64 64 77 316 356 155 170 165 161 143 169 211 183 171 149 150 161
349 348 345 342 339 333 330 328 329 331 333 332 325 330 318 238 167 52 120 149 160 168 149 147 158 130 61 52 58 134 296 297 320 150 150 168 145 173 193 343 174 150 158 156 168
347 346 344 342 337 332 330 328 328 325 326 326 323 327 305 250 258 74 126 146 160 168 174 162 147 151 94 96 228 278 349 307 259 174 147 145 178 236 171 70 129 145 157 166 174
345 344 343 339 335 332 328 327 325 319 318 317 316 317 241 237 5 341 153 152 170 167 154 153 303 170 104 75 334 332 317 312 114 156 154 160 166 200 137 138 145 158 166 175 184
344 343 341 339 335 331 327 324 320 313 305 300 297 282 181 250 348 109 149 145 168 163 161 190 185 346 137 160 343 294 111 114 127 169 165 146 176 221 160 166 165 178 178 183 189
342 341 340 339 334 330 325 324 317 304 285 251 230 206 251 207 51 143 153 124 163 87 126 169 192 117 328 300 127 29 68 168 131 172 178 193 248 207 171 174 185 190 194 193 195
339 339 337 337 332 327 322 324 314 5 110 152 173 235 253 25 205 166 173 154 158 221 274 176 212 61 155 52 125 31 118 303 217 130 153 210 265 208 187 190 196 198 204 202 200
335 334 333 332 326 325 322 315 337 316 125 201 256 234 205 222 174 143 155 148 150 176 185 166 135 201 117 212 87 49 32 320 279 142 203 219 257 231 200 207 206 203 207 209 206
332 330 329 329 325 322 319 287 237 217 235 220 179 297 117 50 139 151 161 147 127 164 175 164 206 213 187 193 167 297 311 295 290 269 263 251 266 275 217 215 217 213 211 212 215
328 329 328 328 329 335 153 220 106 17 293 228 246 265 261 305 133 155 181 168 169 171 146 160 231 223 180 180 262 283 293 291 293 230 232 247 255 250 228 224 218 215 214 215 213
327 328 329 332 327 187 278 239 358 282 268 282 201 232 209 182 216 183 184 165 176 166 189 198 209 196 196 209 261 271 259 270 277 117 216 296 274 234 248 243 228 226 226 222 215
325 327 333 332 212 347 250 160 321 231 289 215 214 247 165 168 208 178 192 160 164 196 181 218 214 143 168 212 227 285 237 262 262 253 285 325 299 288 250 266 238 236 225 226 220
321 324 330 332 317 231 57 328 106 196 264 136 164 38 139 198 130 189 179 200 171 160 182 187 202 219 233 244 194 295 351 98 78 209 280 122 264 268 257 264 247 241 238 232 222
316 322 327 169 219 253 296 314 203 200 244 149 131 167 163 197 150 123 170 188 129 141 201 211 199 211 229 124 180 139 126 79 96 276 251 79 265 277 256 247 293 276 234 229 218
315 315 278 230 251 139 294 179 175 227 44 157 166 169 180 178 158 176 173 185 188 185 187 162 206 140 145 122 111 171 73 308 280 264 281 178 246 261 278 266 277 282 261 234 208
322 312 222 208 261 263 256 184 211 206 238 28 115 138 189 164 196 157 176 186 203 192 192 213 210 199 164 229 175 166 201 232 292 282 324 164 249 263 244 288 247 279 271 234 210
322 146 196 235 214 220 198 202 220 204 353 349 129 159 192 192 195 176 190 197 198 194 205 201 220 166 205 159 185 143 213 7 271 197 275 268 270 277 284 283 273 250 239 223 205
313 300 262 30 167 190 197 219 219 221 315 244 186 212 189 179 180 188 176 193 197 202 208 182 217 206 144 143 71 234 134 173 182 252 253 251 275 256 307 322 318 252 228 224 216
256 215 25 146 183 190 207 210 215 232 231 11 336 273 199 173 189 182 184 158 201 178 198 188 241 132 169 207 187 159 202 180 238 255 278 306 282 215 265 289 295 281 251 218 212
317 165 41 185 175 224 207 195 189 194 169 283 256 253 238 158 169 173 193 223 188 159 190 199 229 232 207 101 269 225 227 207 233 201 274 313 275 259 272 291 292 283 259 232 215
8 79 121 286 191 194 198 216 223 195 230 214 288 241 202 182 161 206 195 45 164 175 182 174 214 220 222 204 182 222 199 222 231 237 239 270 270 217 276 288 277 271 240 224 206
283 159 141 196 318 224 194 182 211 196 225 208 266 260 252 213 144 172 152 150 129 179 126 170 218 219 229 233 205 215 224 214 233 245 255 243 272 284 288 298 296 276 250 217 186
351 57 351 183 206 210 221 172 165 188 200 203 197 227 205 217 151 164 143 142 129 125 110 187 220 210 226 228 205 221 229 232 224 238 241 256 257 270 291 301 299 304 281 214 202
344 338 9 87 269 194 246 181 193 165 213 180 227 185 192 205 316 172 164 165 109 108 122 158 222 195 233 224 222 219 228 236 227 240 247 262 276 272 276 289 288 306 236 224 215
24 249 279 62 163 188 196 185 178 166 184 23 167 134 138 100 342 343 330 41 62 60 116 173 181 193 228 183 179 234 233 212 204 209 226 240 251 277 278 277 302 307 226 230 218